Regional Weather Roundup
Issued by NWS

Home | Current Version | Previous Version | Graphics & Text | Print | Product List | Glossary Off
Versions: 1 2 3 4 5 6 7 8 9 10 11 12 13 14 15 16 17 18 19 20 21 22 23 24 25 26 27 28 29 30 31 32 33 34 35 36 37 38 39 40 41 42 43 44 45 46 47 48 49 50

000
ASUS43 KMKX 072321
RWRWI

WISCONSIN REGIONAL WEATHER ROUNDUP
NATIONAL WEATHER SERVICE MILWAUKEE/SULLIVAN WI
500 PM CST WED DEC 07 2016

NOTE: "FAIR" INDICATES FEW OR NO CLOUDS BELOW 12,000 FEET WITH NO
SIGNIFICANT WEATHER AND/OR OBSTRUCTIONS TO VISIBILITY.

WIZ001-002-006>008-014>016-023>028-080000-
NORTHWEST WISCONSIN

CITY           SKY/WX    TMP DP  RH WIND       PRES   REMARKS
SUPERIOR ARPT  CLOUDY    20  12  69 W14G21    29.93R WCI   7
ASHLAND        LGT SNOW  19  14  81 SW17G24   29.89R WCI   4
HAYWARD        CLOUDY    18   8  65 W10G22    29.92R WCI   6
SIREN          FLURRIES  19  10  68 W16G24    29.99R WCI   4
CUMBERLAND     FLURRIES  19  10  68 W21       29.97R WCI   3
RICE LAKE      CLOUDY    19  11  72 W14       30.00R WCI   5
CHETEK         CLOUDY    18  10  71 W6        29.99R WCI  10
LADYSMITH      CLOUDY    20  13  73 SW12G17   29.96R WCI   8
EAU CLAIRE     CLOUDY    19  11  70 W15       30.03R WCI   5
MENOMONIE      CLOUDY    20  12  72 SW12G17   30.04R WCI   8
NEW RICHMOND   MOCLDY    18   9  66 W15G25    30.04R WCI   4
OSCEOLA        MOCLDY    19  10  69 W18       30.08R WCI   3
$$

WIZ003>005-009-010-017-018-080000-
NORTH CENTRAL WISCONSIN

CITY           SKY/WX    TMP DP  RH WIND       PRES   REMARKS
MANITOWISH WTR LGT SNOW  16  14  89 W13G20    29.83R WCI   3
ARBOR VITAE    FLURRIES  19  14  79 W9G17     29.84R WCI   8
WOODRUFF       FLURRIES  19  14  79 W9G17     29.84R WCI   8
RHINELANDER    CLOUDY    19  13  77 W16G26    29.85R WCI   4
EAGLE RIVER    FLURRIES  18  11  74 W12G21    29.82R WCI   6
LAND O LAKES   LGT SNOW  18  13  80 W12G20    29.81S WCI   5
PHILLIPS       FLURRIES  17  12  78 SW13G18   29.88R WCI   4
TOMAHAWK       FLURRIES  18  11  75 W7G21     29.89R WCI   8
MEDFORD        FLURRIES  18  11  75 W12G20    29.92R WCI   5
MERRILL        FLURRIES  19  13  75 W16G26    29.92R WCI   5
$$

WIZ029-030-035-036-043>047-080000-
CENTRAL WISCONSIN

CITY           SKY/WX    TMP DP  RH WIND       PRES   REMARKS
WAUSAU         FLURRIES  19  12  74 W18G30    29.93R WCI   4
MOSINEE        CLOUDY    19  12  73 W17G23    29.95R WCI   4
MARSHFIELD     CLOUDY    19  11  70 W20G31    29.96R WCI   3
STEVENS POINT  CLOUDY    19  11  72 W12G22    29.97R WCI   7
WAUPACA        CLOUDY    24  14  65 W17G24    29.99R WCI  11
WAUTOMA        FLURRIES  21  13  71 W17G23    30.02R WCI   7
WISC RAPIDS    CLOUDY    20  13  74 W14       30.01R WCI   7
CAMP DOUGLAS   FLURRIES  21  12  68 W13       30.05R WCI   9
$$

WIZ011>013-019>022-031-037>040-048>050-080000-
NORTHEAST WISCONSIN

CITY           SKY/WX    TMP DP  RH WIND       PRES   REMARKS
ANTIGO         FLURRIES  17  12  81 W20G25    29.87S WCI   1
SHAWANO        CLOUDY    25  13  62 W10G21    29.94S WCI  14
OCONTO         CLOUDY    23  12  63 W17G25    29.93R WCI   9
STURGEON BAY   CLOUDY    25  15  66 W20G25    29.91R WCI  11
GREEN BAY      CLOUDY    26  16  65 W14G22    29.96R WCI  14
MANITOWOC      CLOUDY    24  16  71 W14G24    29.98R WCI  12
APPLETON       CLOUDY    23  12  63 W16       29.95R WCI  10
CLINTONVILLE   CLOUDY    23  12  63 W16G25    29.95R WCI  10
OSHKOSH        CLOUDY    22  14  71 W12       29.99R WCI  10
$$

WIZ032>034-041-042-053>061-080000-
SOUTHWEST WISCONSIN

CITY           SKY/WX    TMP DP  RH WIND       PRES   REMARKS
LA CROSSE      CLOUDY    22  12  65 W14       30.12R WCI   9
SPARTA         FLURRIES  21  14  74 W13G22    30.08R WCI   8
VIROQUA        CLOUDY    18  13  80 W15G21    30.07R WCI   4
BOSCOBEL       CLOUDY    22  13  68 W9        30.14R WCI  12
PRAIRIE DU CHI FLURRIES  22  13  68 W10       30.16S WCI  12
PLATTEVILLE    CLOUDY    20  15  79 W20G26    30.14R WCI   5
$$

WIZ056-057-062-063-064-067-068-080000-
SOUTH CENTRAL WISCONSIN

CITY           SKY/WX    TMP DP  RH WIND       PRES   REMARKS
REEDSBURG      CLOUDY    19  12  74 W14       30.07R WCI   6
BARABOO/DELLS  CLOUDY    19  12  72 W16G22    30.06R WCI   5
LONE ROCK      CLOUDY    21  13  71 W15G21    30.12R WCI   8
MINERAL POINT  FLURRIES  21  18  86 W18       30.09S WCI   6
MADISON        CLOUDY    20  12  71 W8G18     30.07R WCI  10
MIDDLETON      CLOUDY    22  15  74 W13       30.08R WCI  10
WATERTOWN      CLOUDY    20  14  78 W10       30.06R WCI   9
MONROE         CLOUDY    21  14  73 W22       30.10R WCI   5
JANESVILLE     CLOUDY    21  16  79 W14G20    30.10R WCI   8
$$

WIZ051-052-058>065-066-070>072-080000-
SOUTHEAST WISCONSIN

CITY           SKY/WX    TMP DP  RH WIND       PRES   REMARKS
MILWAUKEE      MOCLDY    25  14  63 W15       30.05R WCI  13
WAUKESHA       MOCLDY    19  12  73 W14       30.05R WCI   6
MILWAUKEE/TIMM CLEAR     21  12  68 W17G23    30.05R WCI   7
RACINE         PTCLDY    24  15  68 W15G23    30.07R WCI  11
BURLINGTON     PTCLDY    21  15  76 W15G24    30.08R WCI   8
KENOSHA        PTCLDY    24  16  71 W16       30.06R WCI  11
FOND DU LAC    CLOUDY    22  12  65 W10       30.01R WCI  11
SHEBOYGAN      MOCLDY    22  13  68 W12G26    30.00R WCI  10
WEST BEND      PTCLDY    21  14  73 W14G22    30.01S WCI   8
JUNEAU         PTCLDY    19  13  77 SW16      30.05R WCI   4
$$

LSZ147-162-080000-
LAKE SUPERIOR

STATION/POSITION TIME  TEMP    WIND        PRES    WAVE
                       AIR SEA DIR/SP/G            HT/PER
                 (UTC) (F)     (DEG/KT/KT) (MB)    (FT/S)
DEVILS ISLAND    2300   26     250/ 31/ 37 1010.8R
PORT WING        2240   22     220/ 13/ 19 1012.5R
SAXON HARBOR     2230   20     230/ 10/ 17 1011.9R
$$

LMZ867-665-643>646-080000-
LAKE MICHIGAN

STATION/POSITION TIME  TEMP    WIND        PRES    WAVE
                       AIR SEA DIR/SP/G            HT/PER
                 (UTC) (F)     (DEG/KT/KT) (MB)    (FT/S)
CHAMBERS ISLAND  2240   25     240/ 10/ 20 1011.9R
NORTHPORT PIER   2247   26     270/  6/ 18 1011.9R
SISTER BAY       2223   27     300/ 23/ 27   N/A
ALGOMA LAKESHORE 2151          270/ 15/ 24   N/A
KEWAUNEE LAKESHO 2254   25     290/ 12/ 17 1013.5R
SHEBOYGAN LAKESH 2300   23     260/ 15/ 18 1016.9R
PORT WASHINGTON  2240   24     270/ 10/ 16 1017.6R
MILWAUKEE LAKESH 2300   24     270/ 18/ 25   N/A
KENOSHA   LAKESH 2300   25     260/ 18/ 23 1018.3
$$

TC  - TEMPERATURE IN CELSIUS
VSB - VISIBILITY IN STATUTE MILES
WCI - WIND CHILL INDEX
HX  - HEAT INDEX





USA.gov is the U.S. government's official web portal to all federal, state and local government web resources and services.